GW6585 Weather Reports


Display with metric or nautical units.
time (UTC)temp
F
wind
direction
speed
MPH
gust
MPH
rain 1hr
in
rain 24hr
in
rain mn
in
humidity
%
barometer
mb
20260506070803 60 291 0.0 11.0 0.00 0.00 0.00 50 959.3
20260506070302 60 307 0.0 11.0 0.00 0.00 0.00 50 959.4
20260506062239 62 294 0.0 11.0 0.00 0.00 0.13 48 958.9
20260506061738 62 258 0.0 11.0 0.00 0.00 0.13 48 959.2
20260506060721 62 259 1.0 11.0 0.00 0.00 0.13 46 959.2
20260506060220 62 201 0.0 11.0 0.00 0.00 0.13 46 959.1
20260506051155 64 246 1.0 11.0 0.00 0.00 0.13 42 958.8
20260506050655 65 243 0.0 11.0 0.00 0.00 0.13 42 958.9
20260506050153 65 212 1.0 11.0 0.00 0.00 0.13 42 958.7
20260506044650 66 245 1.0 11.0 0.00 0.00 0.13 41 958.8
20260506044149 66 253 3.0 11.0 0.00 0.00 0.13 42 958.5
20260506043649 66 234 1.0 11.0 0.00 0.00 0.13 45 958.2
20260506043148 66 240 2.0 11.0 0.00 0.00 0.13 46 958.4
20260506042131 66 224 3.0 11.0 0.00 0.00 0.13 47 958.3
20260506041630 66 258 4.0 11.0 0.00 0.00 0.13 47 958.4
20260506041129 66 241 4.0 11.0 0.00 0.00 0.13 47 958.2
20260506040628 66 258 2.0 11.0 0.00 0.00 0.13 46 957.9
20260506040127 66 271 1.0 11.0 0.00 0.00 0.13 45 958.2
20260506035626 66 278 2.0 11.0 0.00 0.00 0.13 43 958.1
20260506035126 66 264 0.0 11.0 0.00 0.00 0.13 41 957.9
20260506034625 67 251 1.0 11.0 0.00 0.00 0.13 41 957.8
20260506034123 67 245 1.0 11.0 0.00 0.00 0.13 40 957.5
20260506033622 67 253 2.0 11.0 0.00 0.00 0.13 39 957.6
20260506033121 67 251 0.0 11.0 0.00 0.00 0.13 39 957.6
20260506032104 67 266 0.0 11.0 0.00 0.00 0.13 38 957.3
20260506031603 67 253 1.0 11.0 0.00 0.00 0.13 38 957.3
20260506031102 67 276 1.0 11.0 0.00 0.00 0.13 38 957.3
20260506030602 68 230 1.0 11.0 0.00 0.00 0.13 37 957.3
20260506025600 68 236 2.0 11.0 0.00 0.00 0.13 36 957.0
20260506025100 68 232 3.0 11.0 0.00 0.00 0.13 36 957.2
20260506024558 68 231 1.0 11.0 0.00 0.00 0.13 35 956.9
20260506024057 68 233 2.0 11.0 0.00 0.00 0.13 35 956.7
20260506023557 68 246 1.0 11.0 0.00 0.00 0.13 34 956.7
20260506023057 69 238 1.0 11.0 0.00 0.00 0.13 34 956.7
20260506022040 69 225 1.0 11.0 0.00 0.00 0.13 33 956.5
20260506021539 69 231 3.0 11.0 0.00 0.00 0.13 32 956.3
20260506020523 70 220 2.0 11.0 0.00 0.00 0.13 31 956.2
20260506020022 70 222 3.0 11.0 0.00 0.00 0.13 32 956.4
20260506015521 70 244 3.0 11.0 0.00 0.00 0.13 32 956.2
20260506015020 70 236 4.0 13.0 0.00 0.00 0.13 31 956.1
20260506014519 71 230 3.0 13.0 0.00 0.00 0.13 32 956.2
20260506013504 71 235 4.0 14.0 0.00 0.00 0.13 32 956.1
20260506013003 72 236 3.0 14.0 0.00 0.00 0.13 33 956.1
20260506012502 72 237 5.0 14.0 0.00 0.00 0.13 32 956.1
20260506012000 72 234 5.0 13.0 0.00 0.00 0.13 32 956.1
20260506011500 72 237 4.0 12.0 0.00 0.00 0.13 32 956.1
20260506010959 73 257 5.0 12.0 0.00 0.00 0.13 32 956.1
20260506010458 73 232 3.0 15.0 0.00 0.00 0.13 31 955.9
20260506005957 73 238 6.0 15.0 0.00 0.00 0.13 30 955.8
20260506005456 74 232 5.0 12.0 0.00 0.00 0.13 29 955.8
20260506004955 74 218 3.0 12.0 0.00 0.00 0.13 30 955.3
20260506004454 74 240 4.0 12.0 0.00 0.00 0.13 29 955.8
20260506003437 75 229 5.0 12.0 0.00 0.00 0.13 27 955.9
20260506002936 75 224 3.0 12.0 0.00 0.00 0.13 28 955.6
20260506002435 75 235 3.0 12.0 0.00 0.00 0.13 28 955.8
20260506001934 75 222 4.0 12.0 0.00 0.00 0.13 27 955.6
20260506000917 76 236 4.0 12.0 0.00 0.00 0.13 27 955.4
20260506000416 76 225 3.0 12.0 0.00 0.00 0.13 27 955.5
20260505235915 76 224 4.0 12.0 0.00 0.00 0.13 25 955.5
20260505235414 75 220 4.0 12.0 0.00 0.00 0.13 26 955.6
20260505234913 76 230 4.0 12.0 0.00 0.00 0.13 27 955.6
20260505234412 76 217 2.0 12.0 0.00 0.00 0.13 27 955.3
20260505233911 76 215 3.0 12.0 0.00 0.00 0.13 25 955.5
20260505233410 76 232 4.0 12.0 0.00 0.00 0.13 26 955.4
20260505232909 76 220 3.0 12.0 0.00 0.00 0.13 26 955.5
20260505232408 76 220 3.0 13.0 0.00 0.00 0.13 27 955.3
20260505231351 76 238 4.0 12.0 0.00 0.00 0.13 26 955.5
20260505230850 76 225 5.0 12.0 0.00 0.00 0.13 26 955.4
20260505230349 77 240 3.0 11.0 0.00 0.00 0.13 26 955.4
20260505225332 75 210 4.0 11.0 0.00 0.00 0.13 29 955.5
20260505224315 75 218 3.0 11.0 0.00 0.00 0.13 30 955.9
20260505223814 74 210 3.0 11.0 0.00 0.00 0.13 30 955.5
20260505223313 76 209 2.0 11.0 0.00 0.00 0.13 30 956.1
20260505222812 76 276 2.0 11.0 0.00 0.00 0.13 31 955.9
20260505222311 75 235 3.0 11.0 0.00 0.00 0.13 30 955.8
20260505221810 75 209 4.0 11.0 0.00 0.00 0.13 30 955.7
20260505221309 75 229 4.0 11.0 0.00 0.00 0.13 31 955.8
20260505220808 76 213 3.0 11.0 0.00 0.00 0.13 30 956.2
20260505220307 76 196 4.0 11.0 0.00 0.00 0.13 29 956.2
20260505215806 77 225 3.0 11.0 0.00 0.00 0.13 29 956.3
20260505215305 76 230 4.0 11.0 0.00 0.00 0.13 28 956.0
20260505214804 76 229 3.0 11.0 0.00 0.00 0.13 30 956.3
20260505214303 76 221 4.0 12.0 0.00 0.00 0.13 29 956.3
20260505213802 76 217 4.0 12.0 0.00 0.00 0.13 30 956.6
20260505213301 76 223 5.0 12.0 0.00 0.00 0.13 29 956.3
20260505212244 76 224 4.0 12.0 0.00 0.00 0.13 28 956.6
20260505211743 76 221 4.0 13.0 0.00 0.00 0.13 27 956.3
20260505211242 76 218 5.0 13.0 0.00 0.00 0.13 28 956.5
20260505210741 76 210 5.0 13.0 0.00 0.00 0.13 27 956.5
20260505204652 76 221 5.0 13.0 0.00 0.00 0.13 30 956.8
20260505204151 76 218 5.0 12.0 0.00 0.00 0.13 32 956.9
20260505203650 76 210 5.0 12.0 0.00 0.00 0.13 33 956.4
20260505203149 76 219 5.0 12.0 0.00 0.00 0.13 30 956.9
20260505202648 76 224 5.0 12.0 0.00 0.00 0.13 31 956.7
20260505202147 76 223 6.0 12.0 0.00 0.00 0.13 31 956.7
20260505201130 74 232 3.0 12.0 0.00 0.00 0.13 34 956.9
20260505200629 76 228 4.0 12.0 0.00 0.00 0.13 36 957.1
20260505200128 74 222 4.0 12.0 0.00 0.00 0.13 36 956.9
20260505195627 75 230 5.0 12.0 0.00 0.00 0.13 36 956.7
20260505194610 73 225 3.0 12.0 0.00 0.00 0.13 43 957.1
20260505194109 71 330 1.0 12.0 0.00 0.00 0.13 52 957.2
20260505192536 70 335 2.0 12.0 0.00 0.00 0.13 53 957.3
20260505192035 70 11 0.0 12.0 0.00 0.00 0.13 53 957.3
20260505191534 70 0 2.0 12.0 0.00 0.00 0.13 51 957.1
20260505191033 71 314 1.0 12.0 0.00 0.00 0.13 50 957.5
20260505190532 71 338 1.0 12.0 0.00 0.00 0.13 51 957.4
20260505190031 70 60 1.0 12.0 0.00 0.00 0.13 52 957.1
20260505185014 70 11 2.0 12.0 0.00 0.00 0.13 53 957.5
20260505183957 68 15 2.0 12.0 0.00 0.00 0.13 55 957.7
20260505182940 69 32 0.0 12.0 0.00 0.00 0.13 57 957.7
20260505182439 69 13 0.0 12.0 0.00 0.00 0.13 54 958.0
20260505181422 68 217 1.0 12.0 0.00 0.00 0.13 57 958.1
20260505180921 68 225 0.0 12.0 0.00 0.00 0.13 58 958.0
20260505180420 68 210 1.0 12.0 0.00 0.00 0.13 59 958.4
20260505175919 68 239 0.0 12.0 0.00 0.00 0.13 57 958.2
20260505175418 68 277 0.0 12.0 0.00 0.00 0.13 58 958.4
20260505174917 69 205 0.0 12.0 0.00 0.00 0.13 57 958.2
20260505174416 69 234 1.0 12.0 0.00 0.00 0.13 57 958.3
20260505173915 68 259 0.0 12.0 0.00 0.00 0.13 62 958.2
20260505173414 68 130 1.0 12.0 0.00 0.00 0.13 59 958.2
20260505172913 68 186 0.0 12.0 0.00 0.00 0.13 60 958.2
20260505172412 67 22 3.0 12.0 0.00 0.00 0.13 61 958.1
20260505171911 67 311 1.0 12.0 0.00 0.00 0.13 59 958.4
20260505171410 68 335 2.0 12.0 0.00 0.00 0.13 60 958.4
20260505170909 68 37 1.0 12.0 0.00 0.00 0.13 61 958.3
20260505170408 67 216 1.0 12.0 0.00 0.00 0.13 61 958.4
20260505165907 67 233 1.0 12.0 0.00 0.00 0.13 63 958.3
20260505165406 67 220 0.0 12.0 0.00 0.00 0.13 62 958.2
20260505164905 67 151 0.0 12.0 0.00 0.00 0.13 65 958.2
20260505163848 66 82 0.0 12.0 0.00 0.00 0.13 71 958.1
20260505163347 66 87 0.0 12.0 0.00 0.00 0.13 74 958.1
20260505162846 65 37 0.0 12.0 0.00 0.00 0.13 75 958.0
20260505162345 64 289 0.0 12.0 0.00 0.00 0.13 79 958.3
20260505161844 63 287 0.0 12.0 0.00 0.00 0.13 79 958.2
20260505161343 64 347 0.0 12.0 0.00 0.00 0.13 80 958.3
20260505160842 64 347 0.0 12.0 0.00 0.00 0.13 80 958.4
20260505160341 63 347 0.0 12.0 0.00 0.00 0.13 80 958.5
20260505153306 63 221 0.0 12.0 0.00 0.00 0.13 79 958.0
20260505152805 63 227 0.0 12.0 0.00 0.00 0.13 77 957.8
20260505152305 62 251 0.0 12.0 0.00 0.00 0.13 79 957.8
20260505151246 62 238 0.0 12.0 0.00 0.00 0.13 82 958.1
20260505150746 62 238 0.0 12.0 0.00 0.00 0.13 84 957.8
20260505150245 62 238 0.0 12.0 0.00 0.00 0.13 84 957.7
20260505140217 60 97 0.0 12.0 0.00 0.00 0.13 87 957.2
20260505130135 59 63 1.0 12.0 0.01 0.00 0.13 92 956.9
20260505124632 59 81 1.0 12.0 0.01 0.00 0.13 91 956.6
20260505124131 59 93 1.0 12.0 0.02 0.00 0.13 91 956.6
20260505123631 59 102 1.0 12.0 0.02 0.00 0.13 91 956.8
20260505123130 59 89 0.0 12.0 0.02 0.00 0.13 91 956.7
20260505122629 59 89 0.0 12.0 0.02 0.00 0.13 90 956.5
20260505122128 59 89 0.0 12.0 0.02 0.00 0.13 90 956.5
20260505121627 59 89 0.0 12.0 0.02 0.00 0.13 90 956.7
20260505121126 59 89 0.0 12.0 0.01 0.00 0.11 90 956.5
20260505120625 59 89 0.0 12.0 0.01 0.00 0.11 89 956.3
20260505120124 59 89 0.0 12.0 0.01 0.00 0.11 89 956.5
20260505115623 59 89 0.0 12.0 0.01 0.00 0.11 88 956.4
20260505114050 59 60 1.0 12.0 0.00 0.00 0.10 89 956.1
20260505113549 59 65 1.0 12.0 0.00 0.00 0.10 89 956.1
20260505113048 59 84 1.0 12.0 0.00 0.00 0.10 89 956.7
20260505112547 59 141 0.0 12.0 0.00 0.00 0.10 89 956.7
20260505112047 58 71 0.0 12.0 0.00 0.00 0.10 89 956.6
20260505111546 58 87 0.0 12.0 0.00 0.00 0.10 90 956.5
20260505111045 58 91 4.0 12.0 0.00 0.00 0.10 90 956.5
20260505110544 58 68 2.0 12.0 0.00 0.00 0.10 90 956.7
20260505102006 59 73 1.0 12.0 0.03 0.00 0.09 91 956.9
20260505101505 59 69 1.0 12.0 0.03 0.00 0.09 91 957.4
20260505101004 58 65 4.0 12.0 0.03 0.00 0.09 91 957.7
20260505100503 58 78 3.0 12.0 0.03 0.00 0.09 92 957.6
20260505100002 58 75 4.0 12.0 0.03 0.00 0.09 92 957.7
20260505095501 58 80 4.0 12.0 0.03 0.00 0.09 92 957.6
20260505095000 58 63 2.0 12.0 0.02 0.00 0.08 92 957.8
20260505093427 59 44 3.0 12.0 0.02 0.00 0.08 92 957.7
20260505091854 59 98 6.0 11.0 0.02 0.00 0.06 92 958.1
20260505090837 59 92 5.0 11.0 0.02 0.00 0.06 92 958.1
20260505090336 59 81 7.0 11.0 0.02 0.00 0.06 91 958.2
20260505085836 59 83 6.0 11.0 0.02 0.00 0.05 91 957.9
20260505084819 59 84 6.0 11.0 0.03 0.00 0.05 90 958.4
20260505083802 59 81 5.0 11.0 0.03 0.00 0.05 90 958.5
20260505082745 59 86 4.0 11.0 0.03 0.00 0.05 90 959.0
20260505081728 59 89 2.0 11.0 0.03 0.00 0.04 90 959.2
20260505081227 59 70 2.0 11.0 0.03 0.00 0.04 90 959.2
20260505080210 59 58 1.0 11.0 0.03 0.00 0.03 90 959.5
20260505075153 59 77 1.0 11.0 0.03 0.00 0.03 91 960.1
20260505074652 59 63 3.0 11.0 0.03 0.00 0.02 91 959.6
20260505074151 59 57 1.0 11.0 0.03 0.00 0.02 91 960.1
20260505073650 60 60 2.0 11.0 0.03 0.00 0.02 91 960.0